Laredo, TX

2:40 PM CST on November 19, 2017 (GMT -0600)
Laredo International

Weather History for KLRD - May, 2012

Change the Weather History Date:

Tuesday, May 8, 2012

  Actual Average Record
Temperature  
Mean Temperature 76 °F 81 °F  
Max Temperature 82 °F 92 °F 108 °F (2011)
Min Temperature 69 °F 70 °F 43 °F (1917)
Degree Days  
Heating Degree Days 0 0  
Month to date heating degree days 0 0  
Since 1 July heating degree days 674 926  
Cooling Degree Days 11 16  
Month to date cooling degree days 162 121  
Year to date cooling degree days 1087 721  
Growing Degree Days 24 (Base 50)    
Moisture  
Dew Point 67 °F    
Average Humidity 82    
Maximum Humidity 90    
Minimum Humidity 65    
Precipitation  
Precipitation 0.40 in 0.08 in 1.00 in (1919)
Month to date precipitation 0.56 0.62  
Year to date precipitation 1.83 5.00  
Sea Level Pressure  
Sea Level Pressure 29.89 in    
Wind  
Wind Speed 13 mph (ENE)    
Max Wind Speed 30 mph    
Max Gust Speed 36 mph    
Visibility 7 miles    
Events Rain , Thunderstorm    
T = Trace of Precipitation, MM = Missing Value Source: NWS Daily Summary

Daily Weather History Graph

Daily Weather History Graph

Search for Another Location

Airport or City:

Trip Planner

Search our weather history database for the weather conditions in past years. The results will help you decide how hot, cold, wet, or windy it might be!

Date:

Astronomy

May. 08, 2012 Rise Set
Actual Time 6:52 AM CDT 8:15 PM CDT
Civil Twilight 6:27 AM CDT 8:41 PM CDT
Nautical Twilight 5:58 AM CDT 9:10 PM CDT
Astronomical Twilight 5:27 AM CDT 9:42 PM CDT
Moon 11:21 PM CDT (5/8) 9:10 AM CDT (5/8)
Length of Visible Light 14h 13m
Length of Day
13h 22m
Waning Gibbous, 90% of the Moon is Illuminated
May 8
Waning Gibbous
May 12
Last Quarter
May 20
New
May 28
First Quarter
Jun 4
Full

Hourly Weather History & Observations

Time (CDT) Temp. Heat Index Dew Point Humidity Pressure Visibility Wind Dir Wind Speed Gust Speed Precip Events Conditions
12:56 AM 81.0 °F 83.8 °F 68.0 °F 65% 29.83 in 10.0 mi East 15.0 mph - N/A   Clear
1:56 AM 79.0 °F - 68.9 °F 71% 29.82 in 10.0 mi ESE 15.0 mph - N/A   Clear
2:56 AM 77.9 °F - 68.9 °F 74% 29.78 in 10.0 mi SE 11.5 mph - N/A   Clear
3:56 AM 75.2 °F - 69.8 °F 83% 29.83 in 10.0 mi ESE 11.5 mph - N/A   Clear
4:56 AM 75.9 °F - 68.9 °F 79% 29.82 in 10.0 mi South 8.1 mph - N/A   Clear
5:15 AM 75.2 °F - 69.8 °F 83% 29.87 in 10.0 mi SSE 6.9 mph - N/A   Mostly Cloudy
5:56 AM 75.9 °F - 70.0 °F 82% 29.84 in 10.0 mi ESE 6.9 mph - N/A   Mostly Cloudy
6:45 AM 75.2 °F - 69.8 °F 83% 29.89 in 9.0 mi East 9.2 mph - N/A   Mostly Cloudy
6:56 AM 75.2 °F - 69.8 °F 83% 29.89 in 10.0 mi ESE 9.2 mph - N/A   Mostly Cloudy
7:56 AM 77.0 °F - 69.8 °F 78% 29.89 in 10.0 mi East 10.4 mph - N/A   Partly Cloudy
8:56 AM 79.0 °F - 68.9 °F 71% 29.85 in 10.0 mi ESE 16.1 mph - N/A   Mostly Cloudy
9:56 AM 81.0 °F 83.8 °F 68.0 °F 65% 29.87 in 10.0 mi ESE 13.8 mph - N/A   Mostly Cloudy
10:56 AM 79.9 °F - 66.9 °F 64% 29.88 in 10.0 mi ENE 10.4 mph - N/A   Clear
11:56 AM 79.9 °F - 68.0 °F 67% 29.89 in 10.0 mi NE 19.6 mph 27.6 mph N/A Thunderstorm Thunderstorm
12:21 PM 73.4 °F - 69.8 °F 88% 29.94 in 4.0 mi NE 15.0 mph - 0.00 in Rain Light Rain
12:48 PM 71.6 °F - 66.2 °F 83% 29.91 in 10.0 mi NE 20.7 mph 31.1 mph 0.00 in Rain Light Rain
12:56 PM 71.6 °F - 66.2 °F 83% 29.95 in 9.0 mi NE 19.6 mph 26.5 mph N/A Rain Light Rain
1:22 PM 69.8 °F - 66.2 °F 88% 29.91 in 4.0 mi NE 20.7 mph 31.1 mph 0.03 in Rain Light Rain
1:30 PM 69.8 °F - 66.2 °F 88% 29.89 in 4.0 mi NE 25.3 mph 31.1 mph 0.03 in Rain Rain
1:48 PM 69.8 °F - 66.2 °F 88% 29.91 in 4.0 mi NE 21.9 mph 27.6 mph 0.05 in Rain , Thunderstorm Thunderstorms and Rain
1:56 PM 70.0 °F - 66.9 °F 90% 29.90 in 2.0 mi NE 18.4 mph - 0.07 in Rain , Thunderstorm Heavy Thunderstorms and Rain
2:03 PM 69.8 °F - 66.2 °F 88% 29.92 in 1.5 mi NE 17.3 mph - 0.02 in Rain , Thunderstorm Heavy Thunderstorms and Rain
2:06 PM 69.8 °F - 66.2 °F 88% 29.91 in 2.0 mi NE 19.6 mph - 0.02 in Rain , Thunderstorm Heavy Thunderstorms and Rain
2:10 PM 69.8 °F - 66.2 °F 88% 29.92 in 1.8 mi NE 19.6 mph - 0.04 in Rain , Thunderstorm Heavy Thunderstorms and Rain
2:16 PM 69.8 °F - 66.2 °F 88% 29.93 in 1.0 mi NE 20.7 mph - 0.07 in Rain , Thunderstorm Heavy Thunderstorms and Rain
2:36 PM 69.8 °F - 66.2 °F 88% 29.92 in 1.2 mi NE 24.2 mph 27.6 mph 0.19 in Rain Heavy Rain
2:44 PM 69.8 °F - 66.2 °F 88% 29.94 in 1.8 mi NE 18.4 mph - 0.20 in Rain Rain
2:56 PM 68.9 °F - 65.8 °F 90% 29.89 in 2.0 mi NE 23.0 mph 29.9 mph 0.22 in Rain Rain
3:07 PM 69.8 °F - 66.2 °F 88% 29.91 in 5.0 mi ENE 24.2 mph 31.1 mph 0.00 in Rain Light Rain
3:23 PM 69.8 °F - 66.2 °F 88% 29.92 in 10.0 mi NE 18.4 mph 27.6 mph 0.00 in   Overcast
3:48 PM 69.8 °F - 66.2 °F 88% 29.91 in 10.0 mi NE 25.3 mph 29.9 mph 0.01 in   Overcast
3:56 PM 68.9 °F - 65.8 °F 90% 29.88 in 10.0 mi NE 21.9 mph 31.1 mph 0.01 in   Overcast
4:08 PM 69.8 °F - 66.2 °F 88% 29.93 in 10.0 mi NNE 19.6 mph 28.8 mph N/A Thunderstorm Thunderstorm
4:27 PM 69.8 °F - 66.2 °F 88% 29.91 in 1.8 mi ENE 18.4 mph 24.2 mph 0.02 in Rain , Thunderstorm Heavy Thunderstorms and Rain
4:32 PM 69.8 °F - 66.2 °F 88% 29.89 in 1.0 mi ENE 21.9 mph 28.8 mph 0.05 in Rain , Thunderstorm Heavy Thunderstorms and Rain
4:37 PM 69.8 °F - 66.2 °F 88% 29.89 in 1.0 mi NE 24.2 mph 29.9 mph 0.07 in Rain , Thunderstorm Heavy Thunderstorms and Rain
4:49 PM 69.8 °F - 66.2 °F 88% 29.88 in 1.5 mi ENE 25.3 mph 33.4 mph 0.09 in   Overcast
4:56 PM 70.0 °F - 66.9 °F 90% 29.85 in 2.5 mi ENE 25.3 mph 33.4 mph 0.10 in   Mostly Cloudy
5:02 PM 69.8 °F - 68.0 °F 94% 29.88 in 4.0 mi ENE 26.5 mph 32.2 mph N/A   Mostly Cloudy
5:14 PM 71.6 °F - 66.2 °F 83% 29.89 in 9.0 mi ENE 20.7 mph 33.4 mph N/A   Scattered Clouds
5:56 PM 72.9 °F - 65.8 °F 79% 29.87 in 10.0 mi ENE 19.6 mph 31.1 mph N/A   Clear
6:56 PM 74.8 °F - 63.9 °F 69% 29.87 in 10.0 mi NE 19.6 mph 27.6 mph N/A   Partly Cloudy
7:56 PM 73.9 °F - 63.9 °F 71% 29.88 in 10.0 mi NE 16.1 mph - N/A   Clear
8:56 PM 72.9 °F - 63.9 °F 73% 29.94 in 10.0 mi NE 11.5 mph - N/A   Mostly Cloudy
9:56 PM 70.9 °F - 63.9 °F 78% 29.95 in 10.0 mi NNE 10.4 mph - N/A   Mostly Cloudy
10:56 PM 71.6 °F - 64.4 °F 78% 30.01 in 10.0 mi NE 8.1 mph - N/A   Overcast
11:56 PM 71.6 °F - 64.4 °F 78% 30.01 in 10.0 mi NNE 10.4 mph - N/A   Overcast